Regional Weather Roundup
Issued by NWS

Home | Current Version | Previous Version | Text Only | Print | Product List | Glossary Off
Versions: 1 2 3 4 5 6 7 8 9 10 11 12 13 14 15 16 17 18 19 20 21 22 23 24 25 26 27 28 29 30 31 32 33 34 35 36 37 38 39 40 41 42 43 44 45 46 47 48 49 50

000
ASUS43 KIND 210509
RWRIN

WEATHER ROUNDUP FOR INDIANA
NATIONAL WEATHER SERVICE INDIANAPOLIS IN
100 AM EDT FRI JUL 21 2017

NOTE: "FAIR" INDICATES FEW OR NO CLOUDS BELOW 12,000 FEET WITH NO
SIGNIFICANT WEATHER AND/OR OBSTRUCTIONS TO VISIBILITY.

* - STATION DOES NOT REPORT WEATHER SUCH AS PRECIPITATION OR FOG.

+ - STATION NOT QUALITY CONTROLLED BY THE NATIONAL WEATHER SERVICE.
    USE DATA WITH CAUTION...ESPECIALLY DEWPOINT AND RELATIVE
    HUMIDITY OBSERVATIONS.

INZ001>003-010>013-019-020-210600-
NORTHWEST INDIANA

CITY           SKY/WX    TMP DP  RH WIND       PRES   REMARKS
GARY /AIRPORT/ CLEAR     76  70  82 NE5       29.98R
KNOX *+        CLEAR     72  72 100 CALM      29.97S
LA PORTE +     CLEAR     72  70  95 CALM      29.99S
MICHIGAN CITY+ CLEAR     68  68 100 CALM      29.99S
MONTICELLO +   MOCLDY    78  77  96 CALM      29.96R
RENSSELAER +   CLOUDY    77  73  88 CALM      29.98R
VALPARAISO     CLEAR     75  71  87 CALM      29.98R

$$

LMZ046-743>745-210600-
SOUTHERN LAKE MICHIGAN

STATION/POSITION TIME  TEMP    WIND        PRES    WAVE
                       AIR SEA DIR/SP/G            HT
                 (UTC) (F)     (DEG/KT/KT) (MB)    (FT)
BURNS HARBOR     0440   75      70/  5/  6 1015.2S
MICHIGAN CITY    0440   76      60/  3/  3   N/A
5NW MICH CITY    0500   74 74   50/  2/  2   N/A     0

$$

INZ004-005-014>016-021>024-210600-
NORTH CENTRAL INDIANA

CITY           SKY/WX    TMP DP  RH WIND       PRES   REMARKS
GOSHEN         CLEAR     73  69  87 NW5       29.98R
LOGANSPORT +   CLOUDY    77  73  88 N3        29.98R FOG
PERU/GRISSOM   PTCLDY    78  78 100 CALM      29.96S
ROCHESTER +    PTCLDY    77  77 100 CALM      29.98R
SOUTH BEND     CLEAR     70  69  97 CALM      29.99R
WARSAW +       CLEAR     73  73 100 CALM      29.98R FOG

$$

INZ006>009-017-018-025>027-210600-
NORTHEAST INDIANA

CITY           SKY/WX    TMP DP  RH WIND       PRES   REMARKS
ANGOLA *+      CLEAR     73  66  78 CALM      29.98R
AUBURN +       CLEAR     75  72  88 CALM      29.98R
FORT WAYNE     PTCLDY    76  73  91 W5        29.97S
HUNTINGTON +   CLEAR     75  74  96 CALM      29.97S
KENDALLVILLE + CLEAR    N/A N/A N/A CALM      29.98R

$$

INZ028-029-035-036-043>045-051>053-210600-
WEST CENTRAL INDIANA

CITY           SKY/WX    TMP DP  RH WIND       PRES   REMARKS
GREENCASTLE +  CLOUDY    79  73  83 S5        30.00S
LAFAYETTE      CLOUDY    79  79 100 CALM      29.95S
TERRE HAUTE    PTCLDY    81  73  76 SW6       29.98S

$$

INZ030>032-037>040-046>048-054>057-064-065-210600-
CENTRAL INDIANA

CITY           SKY/WX    TMP DP  RH WIND       PRES   REMARKS
CP ATTERBURY + CLEAR     77  73  88 SW3       30.00S
FRANKFORT +    CLOUDY    81  78  90 W3        30.00S
GREENWOOD *+   CLEAR     79  74  85 SW5       30.00S
INDIANAPOLIS   PTCLDY    80  75  84 SW9       29.97F
-EAGLE CREEK   MOCLDY    82  75  79 MISG      29.98S
KOKOMO +       CLOUDY    79  77  94 CALM      29.98S
MARION +       PTCLDY    79  75  89 S6        29.98F FOG
MT COMFORT *+  CLEAR     79  75  89 SW7       29.99F
SHELBYVILLE    CLEAR     79  73  82 S6        29.99S
ZIONSVILLE +   CLOUDY    79  75  87 SW6       29.99S

$$

INZ033-034-041-042-049-050-058-059-210600-
EAST CENTRAL INDIANA

CITY           SKY/WX    TMP DP  RH WIND       PRES   REMARKS
MUNCIE         PTCLDY    82  76  81 SW7       29.98S
RICHMOND +     PTCLDY    75  73  94 SW7       30.02S

$$

INZ060-061-067>069-081>083-085>088-210600-
SOUTHWEST INDIANA

CITY           SKY/WX    TMP DP  RH WIND       PRES   REMARKS
EVANSVILLE     CLOUDY    81  74  79 W3        30.01S
HUNTINGBURG *+ PTCLDY    79  74  84 S3        30.02S

$$

INZ062-063-066-070>080-084-089>092-210600-
SOUTH CENTRAL AND SOUTHEAST INDIANA

CITY           SKY/WX    TMP DP  RH WIND       PRES   REMARKS
BEDFORD +      PTCLDY    79  72  78 CALM      30.01S
BLOOMINGTON    CLOUDY    78  72  81 SW5       30.01S
MADISON *+     CLEAR     79  72  78 S3        30.05R
NORTH VERNON + CLEAR     75  72  88 S5        30.02S
SEYMOUR +      CLEAR     77  73  88 S3        30.01R

$$





USA.gov is the U.S. government's official web portal to all federal, state and local government web resources and services.